Location: Ferchesar
(52.6477°N, 12.4298°E)
Time: 03:30:31
(UTC+01:00)

BUGSAT 1 - Pass Details

Date: 25 October 2021
Orbit: 558 x 600 km, 98.1° (Epoch: 03 December)

Event Time Altitude Azimuth Distance (km) Brightness Sun altitude
Rises 05:35:42 0° 22° (NNE) 2,759 ? -21.5°
Reaches altitude 10° 05:38:02 10° 32° (NNE) 1,860 ? -21.2°
Maximum altitude 05:41:39 32° 97° (E) 984 ? -20.6°
Drops below altitude 10° 05:45:16 10° 161° (SSE) 1,857 ? -20.1°
Sets 05:47:35 0° 171° (S) 2,754 ? -19.7°
